Location: �terpigny
(49.8910°N, 2.9249°E)
Time: 04:28:41
(UTC+00:00)

Cosmos 332 Rocket - Pass Details

Date: 03 June 2022
Orbit: 681 x 703 km, 74.0° (Epoch: 05 July)

Event Time Altitude Azimuth Distance (km) Brightness Sun altitude
Exits shadow 00:51:04 13° 249° (WSW) 1,920 5.7 -16.4°
Maximum altitude 00:54:38 30° 306° (NW) 1,229 5.2 -16.2°
Drops below altitude 10° 00:58:51 10° 7° (N) 2,137 7.6 -16.0°
Sets 01:01:26 0° 19° (NNE) 3,060 9.0 -15.9°
